| time (UTC) | temp F | wind direction | speed MPH | gust MPH | rain 1hr in | rain 24hr in | rain mn in | humidity % | barometer mb |
| 20260505054552 | 52 | 245 | 4.0 | 9.0 | 0.00 | 0.00 | 0.00 | 82 | 1010.7 |
| 20260505053053 | 52 | 252 | 4.0 | 7.0 | 0.00 | 0.00 | 0.00 | 81 | 1010.7 |
| 20260505051538 | 52 | 246 | 4.0 | 11.0 | 0.00 | 0.00 | 0.00 | 80 | 1010.7 |
| 20260505041536 | 53 | 263 | 6.0 | 11.0 | 0.00 | 0.00 | 0.00 | 78 | 1010.9 |
| 20260505040019 | 53 | 267 | 5.0 | 11.0 | 0.00 | 0.00 | 0.00 | 78 | 1010.9 |
| 20260505034506 | 53 | 230 | 6.0 | 11.0 | 0.00 | 0.00 | 0.00 | 77 | 1010.7 |
| 20260505033110 | 53 | 240 | 5.0 | 14.0 | 0.00 | 0.00 | 0.00 | 76 | 1010.7 |
| 20260505031558 | 54 | 222 | 7.0 | 15.0 | 0.00 | 0.00 | 0.00 | 76 | 1010.7 |
| 20260505030106 | 54 | 246 | 5.0 | 12.0 | 0.00 | 0.00 | 0.00 | 75 | 1010.9 |
| 20260505024521 | 54 | 232 | 5.0 | 12.0 | 0.00 | 0.00 | 0.00 | 73 | 1011.0 |
| 20260505023028 | 55 | 220 | 4.0 | 12.0 | 0.00 | 0.00 | 0.00 | 71 | 1010.9 |
| 20260505021545 | 55 | 216 | 6.0 | 12.0 | 0.00 | 0.00 | 0.00 | 70 | 1010.9 |
| 20260505020035 | 56 | 224 | 5.0 | 10.0 | 0.00 | 0.00 | 0.00 | 68 | 1010.9 |
| 20260505014536 | 56 | 243 | 6.0 | 12.0 | 0.00 | 0.00 | 0.00 | 66 | 1010.8 |
| 20260505013036 | 56 | 258 | 5.0 | 15.0 | 0.00 | 0.00 | 0.00 | 64 | 1010.7 |
| 20260505011551 | 57 | 242 | 6.0 | 13.0 | 0.00 | 0.00 | 0.00 | 62 | 1010.5 |
| 20260505010029 | 57 | 236 | 4.0 | 8.0 | 0.00 | 0.00 | 0.00 | 61 | 1010.2 |
| 20260505004604 | 58 | 224 | 6.0 | 11.0 | 0.00 | 0.00 | 0.00 | 59 | 1010.0 |
| 20260505003101 | 59 | 241 | 8.0 | 14.0 | 0.00 | 0.00 | 0.00 | 57 | 1009.6 |
| 20260505001604 | 60 | 187 | 7.0 | 15.0 | 0.00 | 0.00 | 0.00 | 56 | 1009.1 |
| 20260505000100 | 60 | 201 | 9.0 | 15.0 | 0.00 | 0.00 | 0.00 | 54 | 1008.9 |
| 20260504234509 | 61 | 260 | 9.0 | 16.0 | 0.00 | 0.00 | 0.00 | 54 | 1008.9 |
| 20260504233023 | 61 | 213 | 7.0 | 16.0 | 0.00 | 0.00 | 0.00 | 53 | 1008.6 |
| 20260504231528 | 63 | 182 | 5.0 | 14.0 | 0.00 | 0.00 | 0.00 | 52 | 1008.2 |
| 20260504230016 | 64 | 267 | 4.0 | 20.0 | 0.00 | 0.00 | 0.00 | 50 | 1007.9 |
| 20260504224504 | 65 | 209 | 7.0 | 20.0 | 0.00 | 0.00 | 0.00 | 48 | 1007.7 |
| 20260504223114 | 66 | 166 | 7.0 | 18.0 | 0.00 | 0.00 | 0.00 | 47 | 1007.5 |
| 20260504221506 | 66 | 201 | 13.0 | 26.0 | 0.00 | 0.00 | 0.00 | 44 | 1007.4 |
| 20260504220124 | 67 | 228 | 12.0 | 23.0 | 0.00 | 0.00 | 0.00 | 43 | 1007.3 |
| 20260504214600 | 67 | 215 | 12.0 | 20.0 | 0.00 | 0.00 | 0.00 | 41 | 1007.4 |
| 20260504213100 | 68 | 188 | 13.0 | 24.0 | 0.00 | 0.00 | 0.00 | 40 | 1007.2 |
| 20260504211551 | 69 | 213 | 7.0 | 15.0 | 0.00 | 0.00 | 0.00 | 38 | 1007.1 |
| 20260504210055 | 70 | 259 | 8.0 | 24.0 | 0.00 | 0.00 | 0.00 | 36 | 1007.1 |
| 20260504204610 | 69 | 238 | 9.0 | 22.0 | 0.00 | 0.00 | 0.00 | 35 | 1007.1 |
| 20260504203058 | 70 | 149 | 7.0 | 15.0 | 0.00 | 0.00 | 0.00 | 34 | 1007.1 |
| 20260504201537 | 70 | 262 | 6.0 | 18.0 | 0.00 | 0.00 | 0.00 | 34 | 1007.1 |
| 20260504200034 | 70 | 231 | 6.0 | 15.0 | 0.00 | 0.00 | 0.00 | 34 | 1007.1 |
| 20260504194614 | 70 | 229 | 10.0 | 21.0 | 0.00 | 0.00 | 0.00 | 33 | 1007.3 |
| 20260504193001 | 70 | 200 | 13.0 | 22.0 | 0.00 | 0.00 | 0.00 | 33 | 1007.3 |
| 20260504191557 | 70 | 266 | 6.0 | 26.0 | 0.00 | 0.00 | 0.00 | 33 | 1007.2 |
| 20260504190100 | 70 | 275 | 9.0 | 21.0 | 0.00 | 0.00 | 0.00 | 34 | 1007.4 |
| 20260504184551 | 69 | 223 | 8.0 | 20.0 | 0.00 | 0.00 | 0.00 | 34 | 1007.5 |
| 20260504183005 | 70 | 173 | 8.0 | 20.0 | 0.00 | 0.00 | 0.00 | 33 | 1007.7 |
| 20260504181509 | 70 | 256 | 9.0 | 21.0 | 0.00 | 0.00 | 0.00 | 33 | 1007.8 |
| 20260504180058 | 69 | 252 | 10.0 | 18.0 | 0.00 | 0.00 | 0.00 | 33 | 1007.9 |
| 20260504174538 | 69 | 252 | 13.0 | 22.0 | 0.00 | 0.00 | 0.00 | 33 | 1007.9 |
| 20260504173033 | 68 | 301 | 10.0 | 20.0 | 0.00 | 0.00 | 0.00 | 33 | 1008.0 |
| 20260504171535 | 67 | 291 | 8.0 | 26.0 | 0.00 | 0.00 | 0.00 | 34 | 1007.9 |
| 20260504081522 | 47 | 232 | 1.0 | 5.0 | 0.00 | 0.00 | 0.00 | 58 | 1010.7 |